Tracking 23762 objects as of 20-Oct-2021
HD Live streaming from Space Station
objects crossing your sky now

LUCKY-7

Track LUCKY-7 now!
10-day predictions
LUCKY-7 is classified as:


NORAD ID: 44406
Int'l Code: 2019-038W
Perigee: 517.7 km
Apogee: 548.7 km
Inclination: 97.6 °
Period: 95.2 minutes
Semi major axis: 6904 km
RCS: Unknown
Launch date: July 5, 2019
Source: United States (US)
Launch site: VOSTOCHNY COSMODROME (VOSTO)

Uplink (MHz):
Downlink (MHz): 437.525
Beacon (MHz):
Mode: 4k8/9k6 GFSK
Call sign:
Status: Active

aabbcc
Your satellite tracking list
Your tracking list is empty




NASA's NSSDC Master Catalog

Two Line Element Set (TLE):
1 44406U 19038W   21292.97585315  .00002380  00000-0  13667-3 0  9997
2 44406  97.6055 256.6351 0022462 238.0728 121.8318 15.13317602126570
Source of the keplerian elements: AFSPC